timestamp,wind_dir_avg,wind_spd_avg,wind_spd_max_dir,wind_spd_gust,battery_voltage,lat,long
2023-07-23 00:04:00+00:00,287.0,2.4,282.0,2.69,12.81,47.59359,-54.27349
2023-07-23 00:14:00+00:00,264.0,1.43,264.0,1.54,12.49,47.59359,-54.27349
2023-07-23 00:24:00+00:00,252.0,1.92,251.0,2.04,12.49,47.59359,-54.27349
2023-07-23 00:34:00+00:00,268.0,2.74,269.0,2.9,12.49,47.59359,-54.27349
2023-07-23 00:44:00+00:00,265.0,2.59,267.0,2.82,12.49,47.59359,-54.27349
2023-07-23 00:54:00+00:00,253.0,1.92,255.0,2.3,12.49,47.59359,-54.27349
2023-07-23 01:04:00+00:00,238.0,1.92,231.0,2.47,12.49,47.59359,-54.27349
2023-07-23 01:14:00+00:00,226.0,1.88,226.0,2.12,12.41,47.59359,-54.27349
2023-07-23 01:24:00+00:00,214.0,2.8,225.0,3.39,12.41,47.59359,-54.27349
2023-07-23 01:34:00+00:00,217.0,3.07,225.0,3.61,12.41,47.59359,-54.27349
2023-07-23 01:44:00+00:00,233.0,1.86,242.0,2.53,12.41,47.59359,-54.27349
2023-07-23 01:54:00+00:00,247.0,0.64,244.0,1.01,12.41,47.59359,-54.27349
2023-07-23 02:04:00+00:00,180.0,0.9,180.0,1.08,12.41,47.59359,-54.27349
2023-07-23 02:14:00+00:00,184.0,0.88,188.0,0.95,12.41,47.59359,-54.27349
2023-07-23 02:24:00+00:00,290.0,1.18,291.0,1.73,12.41,47.59359,-54.27349
2023-07-23 02:34:00+00:00,256.0,2.09,260.0,2.31,12.41,47.59359,-54.27349
2023-07-23 02:44:00+00:00,249.0,2.12,250.0,2.41,12.41,47.59359,-54.27349
2023-07-23 02:54:00+00:00,231.0,2.42,239.0,3.22,12.41,47.59359,-54.27349
2023-07-23 03:04:00+00:00,241.0,1.8,246.0,2.28,12.41,47.59359,-54.27349
2023-07-23 03:14:00+00:00,255.0,1.43,256.0,1.72,12.41,47.59359,-54.27349
2023-07-23 03:24:00+00:00,278.0,2.36,276.0,2.62,12.41,47.59359,-54.27349
2023-07-23 03:34:00+00:00,247.0,2.05,249.0,2.64,12.41,47.59359,-54.27349
2023-07-23 03:44:00+00:00,222.0,2.2,228.0,2.48,12.41,47.59359,-54.27349
2023-07-23 03:54:00+00:00,221.0,1.82,220.0,2.02,12.41,47.59359,-54.27349
2023-07-23 04:04:00+00:00,226.0,1.74,224.0,1.92,12.41,47.59359,-54.27349
2023-07-23 04:14:00+00:00,257.0,2.04,254.0,2.46,12.41,47.59359,-54.27349
2023-07-23 04:24:00+00:00,280.0,1.94,291.0,2.33,12.41,47.59359,-54.27349
2023-07-23 04:34:00+00:00,273.0,3.03,272.0,3.28,12.41,47.59359,-54.27349
2023-07-23 04:44:00+00:00,258.0,2.42,258.0,2.69,12.41,47.59359,-54.27349
2023-07-23 04:54:00+00:00,255.0,2.44,260.0,2.97,12.41,47.59359,-54.27349
2023-07-23 05:04:00+00:00,257.0,2.41,256.0,2.8,12.41,47.59359,-54.27349
2023-07-23 05:14:00+00:00,259.0,2.55,258.0,2.77,12.41,47.59359,-54.27349
2023-07-23 05:24:00+00:00,269.0,2.59,270.0,2.75,12.41,47.59359,-54.27349
2023-07-23 05:34:00+00:00,267.0,2.39,268.0,2.72,12.41,47.59359,-54.27349
2023-07-23 05:44:00+00:00,274.0,1.55,271.0,1.84,12.41,47.59359,-54.27349
2023-07-23 05:54:00+00:00,275.0,1.37,276.0,1.66,12.41,47.59359,-54.27349
2023-07-23 06:04:00+00:00,254.0,2.05,256.0,2.56,12.41,47.59359,-54.27349
2023-07-23 06:14:00+00:00,276.0,2.24,276.0,2.53,12.33,47.59359,-54.27349
2023-07-23 06:24:00+00:00,273.0,3.41,272.0,3.55,12.33,47.59359,-54.27349
2023-07-23 06:34:00+00:00,268.0,2.99,268.0,3.2,12.33,47.59359,-54.27349
2023-07-23 06:44:00+00:00,265.0,2.68,266.0,2.78,12.33,47.59359,-54.27349
2023-07-23 06:54:00+00:00,270.0,2.68,273.0,2.91,12.33,47.59359,-54.27349
2023-07-23 07:04:00+00:00,270.0,3.11,270.0,3.24,12.33,47.59359,-54.27349
2023-07-23 07:14:00+00:00,272.0,1.76,273.0,2.09,12.33,47.59359,-54.27349
2023-07-23 07:24:00+00:00,266.0,0.78,264.0,1.05,12.33,47.59359,-54.27349
2023-07-23 07:34:00+00:00,116.0,0.81,127.0,1.33,12.33,47.59359,-54.27349
2023-07-23 07:44:00+00:00,104.0,1.23,114.0,1.44,12.33,47.59359,-54.27349
2023-07-23 07:54:00+00:00,158.0,0.32,153.0,0.4,12.33,47.59359,-54.27349
2023-07-23 08:04:00+00:00,233.0,0.48,235.0,0.63,12.33,47.59359,-54.27349
2023-07-23 08:14:00+00:00,291.0,0.56,292.0,0.64,12.33,47.59359,-54.27349
2023-07-23 08:24:00+00:00,315.0,0.22,327.0,0.3,12.33,47.59359,-54.27349
2023-07-23 08:34:00+00:00,291.0,0.1,303.0,0.29,12.33,47.59359,-54.27349
2023-07-23 08:44:00+00:00,48.0,0.46,57.0,0.55,12.33,47.59359,-54.27349
2023-07-23 08:54:00+00:00,312.0,0.51,314.0,0.58,12.33,47.59359,-54.27349
2023-07-23 09:04:00+00:00,273.0,0.62,280.0,0.71,12.33,47.59359,-54.27349
2023-07-23 09:14:00+00:00,215.0,0.39,217.0,0.51,12.25,47.59359,-54.27349
2023-07-23 09:24:00+00:00,245.0,0.74,250.0,0.85,12.25,47.59359,-54.27349
2023-07-23 09:34:00+00:00,251.0,0.74,251.0,0.83,12.25,47.59359,-54.27349
2023-07-23 09:44:00+00:00,229.0,0.94,227.0,1.12,12.25,47.59359,-54.27349
2023-07-23 09:54:00+00:00,229.0,1.38,235.0,1.73,12.25,47.59359,-54.27349
2023-07-23 10:04:00+00:00,240.0,1.4,237.0,1.54,12.25,47.59359,-54.27349
2023-07-23 10:14:01+00:00,265.0,1.94,266.0,2.38,12.49,47.59359,-54.27349
2023-07-23 10:24:01+00:00,263.0,2.0,265.0,2.68,12.49,47.59359,-54.27349
2023-07-23 10:34:01+00:00,257.0,1.38,261.0,1.65,12.49,47.59359,-54.27349
2023-07-23 10:44:01+00:00,228.0,0.96,231.0,1.07,12.49,47.59359,-54.27349
2023-07-23 10:54:01+00:00,256.0,1.88,258.0,2.18,12.49,47.59359,-54.27349
2023-07-23 11:04:01+00:00,265.0,2.85,265.0,3.09,12.49,47.59359,-54.27349
2023-07-23 11:14:01+00:00,261.0,3.02,260.0,3.18,12.97,47.59359,-54.27349
2023-07-23 11:24:01+00:00,251.0,3.29,254.0,4.05,12.97,47.59359,-54.27349
2023-07-23 11:34:01+00:00,255.0,2.83,256.0,3.13,12.97,47.59359,-54.27349
2023-07-23 11:44:01+00:00,251.0,3.23,252.0,3.55,12.97,47.59359,-54.27349
2023-07-23 11:54:01+00:00,244.0,2.99,245.0,3.24,12.97,47.59359,-54.27349
2023-07-23 12:04:01+00:00,244.0,2.53,244.0,2.78,12.97,47.59359,-54.27349
2023-07-23 12:14:00+00:00,238.0,2.72,244.0,4.22,13.37,47.59359,-54.27349
2023-07-23 12:24:00+00:00,243.0,3.62,251.0,4.92,13.37,47.59359,-54.27349
2023-07-23 12:34:00+00:00,235.0,3.52,245.0,5.18,13.37,47.59359,-54.27349
2023-07-23 12:44:00+00:00,205.0,2.53,210.0,2.83,13.37,47.59359,-54.27349
2023-07-23 12:54:00+00:00,215.0,2.29,220.0,2.56,13.37,47.59359,-54.27349
2023-07-23 13:04:00+00:00,195.0,2.34,195.0,2.56,13.37,47.59359,-54.27349
2023-07-23 13:14:00+00:00,192.0,2.25,193.0,2.31,13.6,47.59359,-54.27349
2023-07-23 13:24:00+00:00,211.0,2.04,212.0,2.11,13.6,47.59359,-54.27349
2023-07-23 13:34:00+00:00,209.0,2.09,208.0,2.2,13.6,47.59359,-54.27349
2023-07-23 13:44:00+00:00,214.0,2.07,214.0,2.18,13.6,47.59359,-54.27349
2023-07-23 13:54:00+00:00,225.0,2.0,225.0,2.21,13.6,47.59359,-54.27349
2023-07-23 14:04:00+00:00,208.0,1.54,205.0,2.02,13.6,47.59359,-54.27349
2023-07-23 14:14:00+00:00,226.0,1.75,225.0,1.91,13.53,47.59359,-54.27349
2023-07-23 14:24:00+00:00,216.0,1.32,216.0,1.78,13.53,47.59359,-54.27349
2023-07-23 14:34:00+00:00,227.0,3.05,243.0,4.19,13.53,47.59359,-54.27349
2023-07-23 14:44:00+00:00,224.0,3.47,237.0,4.43,13.53,47.59359,-54.27349
2023-07-23 14:54:00+00:00,224.0,3.63,226.0,4.08,13.53,47.59359,-54.27349
2023-07-23 15:04:00+00:00,228.0,3.78,242.0,4.82,13.53,47.59359,-54.27349
2023-07-23 15:14:00+00:00,212.0,2.73,221.0,2.97,13.68,47.59359,-54.27349
2023-07-23 15:24:00+00:00,246.0,3.14,248.0,3.77,13.68,47.59359,-54.27349
2023-07-23 15:34:00+00:00,241.0,2.84,248.0,4.65,13.68,47.59359,-54.27349
2023-07-23 15:44:00+00:00,241.0,2.93,253.0,4.19,13.68,47.59359,-54.27349
2023-07-23 15:54:00+00:00,237.0,3.78,239.0,4.54,13.68,47.59359,-54.27349
2023-07-23 16:04:00+00:00,226.0,5.07,225.0,5.96,13.68,47.59359,-54.27349
2023-07-23 16:14:00+00:00,228.0,5.87,225.0,6.74,13.68,47.59359,-54.27349
2023-07-23 16:24:00+00:00,219.0,5.76,218.0,6.6,13.68,47.59359,-54.27349
2023-07-23 16:34:00+00:00,216.0,5.95,215.0,6.96,13.68,47.59359,-54.27349
2023-07-23 16:44:00+00:00,227.0,5.9,228.0,6.6,13.68,47.59359,-54.27349
2023-07-23 16:54:00+00:00,225.0,4.87,225.0,5.61,13.68,47.59359,-54.27349
2023-07-23 17:04:00+00:00,238.0,5.4,243.0,6.74,13.68,47.59359,-54.27349
2023-07-23 17:14:00+00:00,231.0,5.05,230.0,6.36,13.68,47.59359,-54.27349
2023-07-23 17:24:00+00:00,244.0,4.94,244.0,5.5,13.68,47.59359,-54.27349
2023-07-23 17:34:00+00:00,241.0,4.5,242.0,5.13,13.68,47.59359,-54.27349
2023-07-23 17:44:00+00:00,213.0,3.03,221.0,3.76,13.68,47.59359,-54.27349
2023-07-23 17:54:00+00:00,239.0,5.5,241.0,7.05,13.68,47.59359,-54.27349
2023-07-23 18:04:00+00:00,233.0,6.83,234.0,8.23,13.68,47.59359,-54.27349
2023-07-23 18:14:01+00:00,228.0,6.63,215.0,7.88,13.37,47.59359,-54.27349
2023-07-23 18:24:01+00:00,229.0,5.49,227.0,6.27,13.37,47.59359,-54.27349
2023-07-23 18:34:01+00:00,225.0,5.45,229.0,6.21,13.37,47.59359,-54.27349
2023-07-23 18:44:01+00:00,222.0,5.2,233.0,6.11,13.37,47.59359,-54.27349
2023-07-23 18:54:01+00:00,224.0,5.02,225.0,5.94,13.37,47.59359,-54.27349
2023-07-23 19:04:01+00:00,238.0,5.74,242.0,6.39,13.37,47.59359,-54.27349
2023-07-23 19:14:00+00:00,235.0,5.67,234.0,6.09,13.29,47.59359,-54.27349
2023-07-23 19:24:00+00:00,214.0,4.21,232.0,5.36,13.29,47.59359,-54.27349
2023-07-23 19:34:00+00:00,221.0,4.39,239.0,7.53,13.29,47.59359,-54.27349
2023-07-23 19:44:00+00:00,233.0,7.43,217.0,8.67,13.29,47.59359,-54.27349
2023-07-23 19:54:00+00:00,234.0,6.85,240.0,7.69,13.29,47.59359,-54.27349
2023-07-23 20:04:00+00:00,227.0,7.25,227.0,8.31,13.29,47.59359,-54.27349
2023-07-23 20:14:00+00:00,227.0,7.69,227.0,8.61,13.21,47.59359,-54.27349
2023-07-23 20:24:00+00:00,226.0,5.67,228.0,6.64,13.21,47.59359,-54.27349
2023-07-23 20:34:00+00:00,238.0,5.79,235.0,6.98,13.21,47.59359,-54.27349
2023-07-23 20:44:00+00:00,241.0,5.3,240.0,5.92,13.21,47.59359,-54.27349
2023-07-23 20:54:00+00:00,246.0,5.17,247.0,5.72,13.21,47.59359,-54.27349
2023-07-23 21:04:00+00:00,239.0,4.69,237.0,5.24,13.21,47.59359,-54.27349
2023-07-23 21:14:00+00:00,233.0,4.81,232.0,5.34,12.81,47.59359,-54.27349
2023-07-23 21:24:00+00:00,238.0,5.49,238.0,5.87,12.81,47.59359,-54.27349
2023-07-23 21:34:00+00:00,233.0,4.97,233.0,5.46,12.81,47.59359,-54.27349
2023-07-23 21:44:00+00:00,226.0,4.89,232.0,5.85,12.81,47.59359,-54.27349
2023-07-23 21:54:00+00:00,216.0,3.3,223.0,4.12,12.81,47.59359,-54.27349
2023-07-23 22:04:00+00:00,218.0,3.87,225.0,4.56,12.81,47.59359,-54.27349
2023-07-23 22:14:00+00:00,218.0,2.96,218.0,3.28,12.57,47.59359,-54.27349
2023-07-23 22:24:00+00:00,228.0,2.94,228.0,3.41,12.57,47.59359,-54.27349
2023-07-23 22:34:00+00:00,240.0,4.62,250.0,6.38,12.57,47.59359,-54.27349
2023-07-23 22:44:00+00:00,229.0,4.36,240.0,6.5,12.57,47.59359,-54.27349
2023-07-23 22:54:00+00:00,181.0,2.67,179.0,2.95,12.57,47.59359,-54.27349
2023-07-23 23:04:00+00:00,189.0,1.39,188.0,1.75,12.57,47.59359,-54.27349
2023-07-23 23:14:00+00:00,197.0,1.3,192.0,1.62,12.41,47.59359,-54.27349
2023-07-23 23:24:00+00:00,105.0,0.5,97.0,0.63,12.41,47.59359,-54.27349
2023-07-23 23:34:00+00:00,265.0,4.71,258.0,5.53,12.41,47.59359,-54.27349
2023-07-23 23:44:00+00:00,272.0,3.45,272.0,3.68,12.41,47.59359,-54.27349
2023-07-23 23:54:00+00:00,246.0,5.04,251.0,6.4,12.41,47.59359,-54.27349
